Location: Newark
(34.9500°N, 139.9667°E)
Time: 11:47:42
(UTC+00:00)

Transit 2A - Pass Details

Date: 15 December 2019
Orbit: 601 x 958 km, 66.7° (Epoch: 25 January)

Event Time Altitude Azimuth Distance (km) Brightness Sun altitude
Rises 04:22:37 0° 353° (N) 2,883 8.5 26.5°
Reaches altitude 10° 04:25:50 10° 19° (NNE) 2,011 7.7 26.1°
Maximum altitude 04:28:19 14° 52° (NE) 1,771 7.5 25.9°
Drops below altitude 10° 04:30:51 10° 85° (E) 2,090 8.0 25.6°
Sets 04:34:18 0° 110° (ESE) 3,075 9.0 25.3°
